Starlink 32119

decayed
NORAD ID: 60072 Int'l Des: 2024-113 Owner: SPXS Country: US Constellation: starlink
LEOCIRCULAR
Gruppe

Über Starlink 32119

Beschreibung wird geladen...

Höhenverlauf

Altitude vs Time

uPlot chart will show altitude changes over time

Zweizeiliger Elementsatz

1 60072U 24113P 24189.81134567 .07402585 12628-4 20752-3 0 9998
2 60072 53.1745 315.8520 0015137 320.0834 164.4019 16.43981037 3799
Epoch: 7. Juli 2024 • Age: 11646 hours

Aktueller Status

Position data unavailable
Startdatum 19. Juni 2024
Alter 1.3 years
Verglühungsdatum 7. Juli 2024
Typ internet

Technische Details

Klassifizierung Payload
Masse 730.00 kg
Trockenmasse 700.00 kg
Gesamtmasse 730.00 kg
Länge 0.30 m
Durchmesser 4.10 m
Spannweite 29.00 m
Form Box + pan
Hersteller SPXS
Bus-Typ Starlink V2M
Phasenstatus Unknown Transfer Status
Besitzer/Staat SPXS/US

Große Konstellationen

Loading constellations...